Tracking 18987 objects as of 25-Feb-2018
HD Live streaming from Space Station
objects crossing your sky now

FENGYUN 1C DEB

Track FENGYUN 1C DEB now!
10-day predictions


NORAD ID: 39544
Int'l Code: 1999-025EWM
Perigee: 851.6 km
Apogee: 935.1 km
Inclination: 98.9 °
Period: 102.7 minutes
Semi major axis: 7264 km
RCS: Unknown
Launch date: May 10, 1999
Source: People's Republic of China (PRC)
Launch site: Taiyaun Space Center, China (TSC)

Note: This is SATELLITE DEBRIS
aabbcc
Your satellite tracking list
Your tracking list is empty




NASA's NSSDC Master Catalog

Two Line Element Set (TLE):
1 39544U 99025EWM 18053.52379356  .00000012  00000-0  35886-4 0  9994
2 39544  98.9261 329.9657 0057467  40.2478 320.2921 14.02195469210538
Source of the keplerian elements: AFSPC